Location: New York
(40.7140°N, 74.0060°W)
Time: 07:39:38
(UTC-04:00)

ISS - Visible Passes

Search period start: 26 May 2015 00:00
Search period end: 05 June 2015 00:00
Orbit: 399 x 404 km, 51.6° (Epoch: 26 May)

Date Brightness Start Highest point End Pass type
(mag) Time Alt. Az. Time Alt. Az. Time Alt. Az.
26 May -0.7 01:45:58 21° N 01:45:58 21° N 01:47:50 10° NNE visible
26 May -0.2 03:21:01 10° NNW 03:22:28 12° N 03:23:55 10° NNE visible
27 May -0.3 00:54:13 14° NE 00:54:13 14° NE 00:54:48 10° NE visible
27 May -0.2 02:27:11 10° NW 02:28:55 13° N 02:30:38 10° NNE visible
27 May -0.2 04:04:28 10° NNW 04:06:22 14° NNE 04:08:18 10° NE visible
28 May -0.5 01:34:52 16° NNW 01:35:23 16° NNW 01:37:32 10° NNE visible
28 May -0.1 03:11:17 10° NNW 03:12:50 13° N 03:14:22 10° NNE visible
28 May -1.0 04:47:13 10° NW 04:50:04 27° NNE 04:52:56 10° E visible
29 May -0.5 00:42:45 19° N 00:42:45 19° N 00:44:28 10° NNE visible
29 May 0.0 02:17:49 10° NNW 02:19:14 12° N 02:20:40 10° NNE visible
29 May -0.4 03:54:10 10° NNW 03:56:37 19° NNE 03:59:05 10° ENE visible
29 May -0.8 23:50:03 20° NNE 23:50:03 20° NNE 23:51:25 10° NE visible
30 May 0.0 01:24:01 10° NW 01:25:39 13° N 01:27:16 10° NNE visible
30 May -0.1 03:01:06 10° NNW 03:03:05 15° NNE 03:05:06 10° NE visible
30 May -2.3 04:36:54 10° NW 04:40:07 50° NNE 04:43:17 10° ESE visible
30 May -1.8 21:16:49 10° S 21:18:56 17° SE 21:21:07 10° E visible
30 May -2.6 22:51:55 10° WSW 22:55:06 52° NNW 22:58:17 10° NE visible
31 May -0.1 00:30:02 10° NW 00:32:05 15° NNW 00:34:06 10° NNE visible
31 May 0.1 02:07:55 10° NNW 02:09:31 13° N 02:11:08 10° NE visible
31 May -1.2 03:43:47 10° NW 03:46:43 30° NNE 03:49:40 10° E visible
31 May -3.5 21:58:33 10° SW 22:01:47 80° SE 22:05:03 10° NE visible
31 May -0.5 23:36:03 10° WNW 23:38:32 20° NNW 23:41:00 10° NNE visible
01 Jun 0.2 01:14:30 10° NNW 01:15:54 12° N 01:17:19 10° NNE visible
01 Jun -0.5 02:50:42 10° NNW 02:53:15 21° NNE 02:55:49 10° ENE visible
01 Jun -3.4 04:26:42 10° WNW 04:29:57 72° SW 04:33:12 10° SE visible
01 Jun -2.9 21:05:32 10° SSW 21:08:34 38° SE 21:11:37 10° ENE visible
01 Jun -1.1 22:42:10 10° W 22:45:02 28° NNW 22:47:55 10° NE visible
02 Jun 0.2 00:20:44 10° NW 00:22:16 13° N 00:23:49 10° NNE visible
02 Jun -0.1 01:57:36 10° NNW 01:59:42 16° NNE 02:01:49 10° NE visible
02 Jun -2.7 03:33:25 10° NW 03:36:39 58° NNE 03:39:52 10° ESE visible
02 Jun -2.2 21:48:28 10° WSW 21:51:36 45° NNW 21:54:45 10° NE visible
02 Jun 0.0 23:26:43 10° NW 23:28:39 15° NNW 23:30:34 10° NNE visible
03 Jun 0.1 01:04:25 10° NNW 01:06:05 13° N 01:07:47 10° NE visible
03 Jun -1.6 02:40:15 10° NW 02:43:15 33° NNE 02:46:16 10° E visible
03 Jun -2.5 04:16:44 10° WNW 04:19:37 29° SW 04:22:29 10° SSE visible
03 Jun -3.3 20:55:01 10° SW 20:58:15 87° NW 21:01:31 10° NE visible
03 Jun -0.3 22:32:41 10° WNW 22:35:03 18° NNW 22:37:25 10° NNE visible
04 Jun 0.1 00:11:01 10° NNW 00:12:26 12° N 00:13:52 10° NNE visible
04 Jun -0.8 01:47:07 10° NNW 01:49:45 22° NNE 01:52:25 10° ENE visible
04 Jun -3.1 03:23:10 10° WNW 03:28:37 18° SE 03:29:36 10° SE visible
04 Jun -0.9 21:38:43 10° W 21:41:30 25° NNW 21:44:17 10° NE visible
04 Jun 0.0 23:17:17 10° NNW 23:18:46 12° N 23:20:15 10° NNE visible
